Wright-Patt AFB, OH

6:02 AM EST on November 18, 2017 (GMT -0500)
Wright-Patterson Air Force Base

Weather History for KFFO - February, 2014

Change the Weather History Date:

Thursday, February 13, 2014

  Actual Average Record
Temperature  
Mean Temperature 20 °F -  
Max Temperature 36 °F 39 °F 52 °F (2011)
Min Temperature 5 °F 23 °F 4 °F (2016)
Degree Days  
Heating Degree Days 44    
Moisture  
Dew Point 7 °F    
Average Humidity 59    
Maximum Humidity 78    
Minimum Humidity 32    
Precipitation  
Precipitation 0.00 in - - ()
Snow  
Snow 0.00 in - - ()
Snow Depth 3.00 in    
Sea Level Pressure  
Sea Level Pressure 29.86 in    
Wind  
Wind Speed 2 mph (SW)    
Max Wind Speed 15 mph    
Max Gust Speed -    
Visibility 10 miles    
Events      
Averages and records for this station are not official NWS values.
T = Trace of Precipitation, MM = Missing Value Source: NWS Daily Summary

Daily Weather History Graph

Daily Weather History Graph

Search for Another Location

Airport or City:

Trip Planner

Search our weather history database for the weather conditions in past years. The results will help you decide how hot, cold, wet, or windy it might be!

Date:

Astronomy

Feb. 13, 2014 Rise Set
Actual Time 7:31 AM EST 6:10 PM EST
Civil Twilight 7:03 AM EST 6:37 PM EST
Nautical Twilight 6:31 AM EST 7:09 PM EST
Astronomical Twilight 6:00 AM EST 7:40 PM EST
Moon 5:17 PM EST (2/13) 6:23 AM EST (2/13)
Length of Visible Light 11h 34m
Length of Day
10h 38m
Waxing Gibbous, 98% of the Moon is Illuminated
Feb 13
Waxing Gibbous
Feb 14
Full
Feb 22
Last Quarter
Mar 1
New
Mar 8
First Quarter

Hourly Weather History & Observations

Time (EST) Temp. Windchill Dew Point Humidity Pressure Visibility Wind Dir Wind Speed Gust Speed Precip Events Conditions
12:58 AM 9.7 °F - 3.7 °F 77% 30.04 in 10.0 mi North 2.3 mph - N/A   Clear
1:58 AM 10.6 °F - 3.4 °F 73% 30.01 in 10.0 mi North 1.2 mph - N/A   Clear
2:58 AM 7.2 °F - 0.9 °F 75% 30.00 in 10.0 mi Calm Calm - N/A   Clear
3:58 AM 7.5 °F - 1.4 °F 76% 29.98 in 10.0 mi Calm Calm - N/A   Clear
4:58 AM 5.5 °F - 0.1 °F 78% 29.97 in 10.0 mi Calm Calm - N/A   Clear
5:58 AM 7.5 °F - 0.5 °F 73% 29.98 in 10.0 mi Calm Calm - N/A   Clear
6:58 AM 7.0 °F - 0.9 °F 76% 29.99 in 10.0 mi Calm Calm - N/A   Partly Cloudy
7:08 AM 6.8 °F - -0.4 °F 72% 29.93 in 8.0 mi Calm Calm - N/A   Clear
7:28 AM 5.0 °F - -0.4 °F 78% 29.92 in 9.0 mi Calm Calm - N/A   Clear
7:58 AM 7.5 °F - 1.6 °F 77% 29.98 in 10.0 mi Calm Calm - N/A   Clear
8:58 AM 7.5 °F - 1.2 °F 75% 29.97 in 10.0 mi Calm Calm - N/A   Clear
9:58 AM 13.8 °F - 3.4 °F 63% 29.95 in 10.0 mi Calm Calm - N/A   Clear
10:58 AM 21.4 °F - 5.7 °F 51% 29.90 in 10.0 mi SSE 2.3 mph - N/A   Clear
11:58 AM 26.8 °F - 8.8 °F 47% 29.89 in 10.0 mi SW 2.3 mph - N/A   Clear
12:58 PM 30.6 °F - 7.2 °F 37% 29.85 in 10.0 mi NW 1.2 mph - N/A   Partly Cloudy
1:58 PM 32.7 °F - 7.0 °F 34% 29.81 in 10.0 mi Calm Calm - N/A   Clear
2:58 PM 34.7 °F - 7.2 °F 32% 29.77 in 10.0 mi Calm Calm - N/A   Clear
3:58 PM 36.1 °F 30.6 °F 12.9 °F 39% 29.77 in 10.0 mi SW 6.9 mph - N/A   Clear
4:58 PM 36.3 °F 30.1 °F 11.7 °F 36% 29.75 in 10.0 mi SW 8.1 mph - N/A   Clear
5:58 PM 35.6 °F 31.7 °F 10.4 °F 35% 29.73 in 10.0 mi WSW 4.6 mph - N/A   Partly Cloudy
6:58 PM 33.3 °F - 18.5 °F 55% 29.72 in 10.0 mi South 2.3 mph - N/A   Mostly Cloudy
7:58 PM 33.6 °F - 15.1 °F 47% 29.70 in 10.0 mi South 2.3 mph - N/A   Mostly Cloudy
8:58 PM 29.5 °F 24.5 °F 14.7 °F 54% 29.70 in 10.0 mi South 4.6 mph - N/A   Overcast
9:58 PM 28.6 °F 20.7 °F 14.5 °F 56% 29.69 in 10.0 mi SSW 8.1 mph - N/A   Mostly Cloudy
10:58 PM 27.0 °F 17.3 °F 14.7 °F 60% 29.65 in 10.0 mi SW 10.4 mph - N/A   Mostly Cloudy
11:58 PM 32.2 °F 21.8 °F 17.4 °F 55% 29.62 in 10.0 mi SW 15.0 mph - N/A   Overcast